Theta_e
305 305 305 306 306 306 305 306 309 310 311 314 315 312 311 312 313 312 310 309 309 306 304 305 305 305 307 307 307 307 306 306 306 306 306 306 306 306 307 307 306 306 306 306 306 307 307 308 309 310 312 313 315 316 317 317 318 319 319 320 320 321 321 321 322 322 322 322 322 321 321 320 318 317 316 316 316 316 316 317 317 318 317 317 317 316 314
308 307 307 307 308 308 306 305 305 306 308 309 309 307 307 309 311 310 308 307 305 303 303 303 303 304 305 305 305 305 304 304 304 304 304 304 304 304 305 305 305 305 305 306 306 306 306 306 306 307 308 308 309 311 312 314 315 316 317 318 319 320 320 320 320 321 322 322 322 322 321 320 319 317 316 316 316 316 317 317 317 318 318 317 317 316 315
311 309 309 309 309 310 309 307 306 308 309 308 307 306 306 308 307 305 306 307 304 302 302 302 302 302 302 302 303 302 302 302 302 302 302 302 302 303 303 304 305 305 305 305 305 305 305 305 306 306 306 306 307 307 308 309 310 311 313 315 316 318 319 319 319 320 321 321 321 321 321 320 319 318 317 316 315 315 317 317 317 317 316 315 316 316 315
314 310 309 309 309 310 310 310 310 312 313 311 308 306 306 308 307 306 308 309 304 302 301 301 300 301 301 301 301 300 300 300 300 300 300 300 300 301 302 303 304 304 305 305 305 305 305 305 305 305 306 306 306 306 306 307 307 308 309 310 312 314 316 317 318 318 319 320 320 320 320 319 319 319 318 317 316 316 316 316 316 315 314 314 315 316 317
312 308 308 309 310 311 312 310 308 307 307 307 306 304 304 305 307 308 310 308 303 301 301 300 300 301 301 300 300 300 299 299 299 299 298 298 299 299 299 300 301 302 302 303 304 304 305 305 305 305 305 305 306 305 305 306 306 306 307 309 310 311 312 314 316 317 317 318 319 319 319 319 319 319 319 318 318 317 316 315 315 315 315 315 316 317 316
309 306 306 308 309 312 310 305 301 302 304 304 305 304 302 302 303 304 305 303 301 301 301 300 300 300 299 299 298 298 298 298 298 298 297 298 298 298 298 298 298 299 300 300 302 303 303 304 304 305 305 305 305 305 305 305 306 306 306 307 309 311 312 312 314 315 316 317 318 318 318 319 319 319 319 318 318 316 315 315 316 316 316 317 317 317 315
307 305 306 308 310 308 305 301 300 302 303 302 302 301 300 301 301 301 301 300 300 300 299 299 299 298 298 298 298 297 298 298 298 298 298 298 298 298 298 298 298 299 299 299 300 301 301 301 302 304 305 305 305 305 305 306 306 306 306 306 307 309 310 311 312 314 315 316 316 317 317 318 319 319 318 318 317 316 316 316 317 317 317 317 316 315 314
305 305 307 309 307 303 301 300 301 302 302 302 304 303 301 300 301 301 301 299 299 299 298 298 298 297 297 297 297 297 297 298 298 298 298 298 298 299 299 299 299 300 300 300 299 299 299 299 300 301 302 303 304 305 305 305 305 306 305 306 306 307 308 309 310 311 313 314 315 315 316 318 318 319 318 317 316 317 317 317 317 317 317 316 316 315 315
303 305 306 304 303 303 302 301 300 301 301 302 303 303 301 299 300 301 300 299 299 299 298 298 297 298 299 299 298 297 297 298 298 298 298 298 298 298 298 298 299 299 299 300 300 300 300 300 300 300 300 301 302 303 304 305 305 306 305 305 306 306 307 308 309 310 311 313 314 315 315 316 318 318 318 317 317 317 317 317 317 317 316 316 316 316 316
301 304 305 304 305 307 305 302 300 300 299 299 301 303 301 299 299 300 300 299 299 299 299 298 298 299 301 301 298 297 297 297 297 297 297 297 297 297 297 297 297 298 298 299 299 300 300 300 300 300 300 300 300 301 302 303 304 305 305 305 305 305 306 307 308 309 310 311 312 313 314 315 316 316 316 316 316 317 316 315 315 315 316 316 316 316 316
301 305 306 306 306 305 302 300 299 299 298 298 301 304 303 299 298 299 300 300 300 299 299 299 299 301 303 302 299 297 297 297 297 297 297 296 297 296 296 297 297 297 297 298 298 298 298 299 300 301 301 301 300 300 301 301 302 303 305 305 305 305 305 306 307 308 309 309 309 310 311 313 314 315 315 315 316 316 316 315 314 314 315 315 315 315 314
302 304 305 303 302 301 299 299 299 298 297 298 302 306 304 299 297 298 299 299 299 298 298 300 300 301 302 301 298 297 297 297 297 296 296 296 296 296 296 296 296 296 297 297 297 298 298 298 299 299 299 300 300 299 300 301 300 301 302 304 305 305 304 305 305 306 307 308 308 308 308 309 312 314 315 315 316 316 316 315 314 314 314 314 314 314 313
303 304 304 302 300 299 298 298 298 298 298 301 305 305 301 297 297 297 297 298 298 297 298 299 299 299 298 298 297 297 297 297 297 296 296 296 296 296 296 296 296 296 296 296 296 296 297 297 297 297 297 297 298 298 299 299 298 298 298 300 303 305 305 304 305 305 305 306 307 307 307 307 308 309 311 312 313 314 314 315 314 314 314 314 314 314 313
301 302 303 302 301 298 297 297 297 298 301 304 302 299 296 297 297 297 297 297 297 297 297 298 298 297 297 297 297 297 297 296 296 296 296 296 296 296 295 295 295 295 295 295 296 296 296 296 296 296 296 296 296 296 297 297 296 297 297 297 299 302 304 304 305 305 305 305 305 306 306 307 307 307 307 308 309 310 312 313 313 313 312 313 313 313 311
299 300 302 304 303 299 297 297 298 299 301 301 298 296 296 297 297 296 297 297 297 297 297 297 297 297 297 297 297 296 296 296 296 296 296 296 296 295 295 295 295 295 295 295 295 295 295 295 295 295 295 295 295 296 296 296 296 296 296 296 297 298 300 302 304 304 305 304 304 305 305 305 307 307 307 307 306 307 308 309 309 309 309 309 310 310 309
300 302 302 301 300 297 297 298 299 299 298 297 296 297 298 297 297 297 297 297 297 297 297 297 297 297 296 296 296 296 296 296 296 295 296 295 295 295 295 295 295 295 295 295 295 295 295 295 295 295 295 295 295 295 295 296 296 296 296 296 296 296 297 299 301 303 304 304 304 304 304 304 305 307 307 307 307 306 305 305 305 306 307 308 308 307 306
299 300 299 297 297 297 297 298 298 297 297 297 297 298 298 297 297 297 297 297 297 297 297 297 296 296 296 296 296 296 296 296 295 295 295 295 294 294 294 294 294 294 295 295 295 295 295 295 295 295 295 295 295 295 295 295 295 295 295 296 296 296 296 297 298 300 302 302 303 303 304 304 304 305 306 306 306 306 306 305 304 304 305 306 306 304 303
297 298 298 298 298 298 297 297 297 297 297 298 298 297 297 298 297 297 297 297 297 296 296 296 296 296 296 296 295 296 295 295 295 295 294 294 294 293 293 294 294 294 294 294 294 294 294 294 294 294 294 295 294 295 295 295 295 295 295 295 296 295 296 296 296 297 299 300 301 302 302 303 304 304 304 305 305 306 306 306 306 305 304 304 304 303 304
297 298 298 298 298 298 297 298 298 298 298 297 297 297 297 297 296 296 296 296 296 296 296 296 296 296 295 295 295 295 295 295 294 294 293 293 293 293 293 293 293 293 294 294 294 294 294 294 294 294 294 294 294 294 294 294 295 295 295 295 295 295 295 296 296 296 297 298 299 300 300 301 302 303 304 304 304 304 305 306 307 306 305 305 305 305 305
297 298 298 298 297 297 297 297 298 298 297 297 297 296 296 296 296 296 296 296 296 296 296 296 296 295 295 295 295 294 294 293 293 293 293 292 292 293 293 293 293 293 293 293 294 294 294 294 294 294 294 295 295 294 294 294 294 294 294 294 295 295 295 295 295 296 296 296 297 298 299 300 301 302 303 303 303 303 304 305 306 306 306 306 306 306 306
297 297 297 297 297 297 297 297 297 297 297 297 297 297 296 296 296 296 296 296 296 296 295 296 295 295 295 294 293 293 293 292 292 292 292 292 292 292 292 292 293 293 293 293 294 294 294 294 293 293 294 295 295 295 294 293 293 293 294 294 294 294 295 295 295 295 296 296 296 297 298 299 300 301 301 301 301 302 303 304 304 304 305 305 305 305 305
297 297 298 297 297 297 298 297 297 297 297 297 296 296 296 296 296 296 296 296 296 295 295 295 294 294 293 293 292 292 292 292 292 292 292 292 292 292 292 292 292 293 293 293 294 295 295 295 295 295 295 295 295 295 295 294 293 293 293 293 294 294 294 294 294 295 295 295 296 296 297 298 299 300 301 301 301 301 301 302 303 303 304 304 303 303 303
297 297 298 297 296 296 297 297 297 296 296 296 296 296 296 296 296 296 296 295 295 295 294 294 293 292 291 291 290 290 291 291 292 292 292 292 292 292 292 292 293 294 295 295 295 296 296 296 296 296 296 296 296 296 296 295 295 294 292 292 292 293 293 293 294 294 295 295 296 296 297 297 298 299 300 300 301 301 301 301 301 302 302 302 302 302 303
296 296 297 297 296 296 296 296 296 296 296 296 296 295 296 295 295 296 295 295 294 294 294 293 292 290 290 290 290 290 291 291 292 292 292 292 292 292 292 293 294 295 295 296 297 297 296 296 296 297 297 297 296 296 296 296 295 295 294 293 292 292 292 292 293 293 294 295 296 296 297 297 297 298 299 300 300 301 301 301 301 301 301 302 303 302 302
296 296 297 296 296 295 295 296 296 296 296 296 295 295 295 295 295 295 295 294 293 293 292 291 290 289 289 289 289 290 290 291 292 292 292 292 292 292 293 294 294 295 296 297 297 296 296 296 296 297 297 296 296 295 295 295 295 295 295 294 294 294 293 293 293 293 293 293 295 296 297 297 297 298 298 299 300 300 300 301 301 301 301 302 302 302 302
296 296 296 296 296 295 295 296 295 295 295 295 295 295 295 295 295 294 294 293 293 292 291 290 290 289 289 290 289 289 289 291 291 292 291 291 292 293 294 294 294 296 297 297 297 296 296 297 297 297 296 296 295 295 295 295 295 295 295 295 295 295 295 294 293 293 293 293 294 295 296 297 297 298 298 298 299 299 299 300 301 301 302 302 302 302 302
296 296 296 296 296 295 295 295 295 295 295 295 295 295 295 294 294 293 293 292 291 290 290 291 291 291 291 291 290 289 289 290 291 291 291 291 292 293 293 294 295 297 297 297 297 297 297 297 297 297 296 295 295 294 294 294 294 295 295 295 295 295 295 295 294 294 293 293 293 294 296 297 297 298 298 298 298 298 299 299 300 301 301 302 301 301 301
296 296 296 296 296 295 295 295 295 295 295 295 295 294 294 293 293 292 292 292 291 290 291 291 292 291 291 291 291 289 289 290 291 291 291 292 292 293 293 294 296 297 297 297 297 297 297 297 297 296 296 295 295 295 295 295 295 295 295 295 294 295 295 295 294 294 294 293 293 293 295 296 297 298 298 298 298 298 298 298 299 300 300 300 300 301 302
296 296 296 296 295 295 295 295 295 295 295 295 294 294 294 293 292 292 292 292 291 291 291 292 292 292 292 292 291 289 289 290 291 291 292 292 292 292 294 296 297 297 297 297 297 297 297 297 296 296 296 296 296 296 296 296 296 296 296 296 295 295 295 295 295 294 294 293 293 293 294 296 297 298 298 298 298 298 297 297 298 299 299 300 300 301 302
296 296 296 296 295 295 294 295 295 295 295 295 294 294 293 292 292 292 292 292 292 292 292 293 293 293 292 292 290 289 289 290 291 291 292 293 293 293 295 297 297 297 297 297 297 297 297 297 296 296 296 296 296 297 298 298 297 297 297 297 296 296 295 295 295 295 294 293 293 293 293 295 296 298 298 298 298 298 298 298 298 298 298 298 300 301 302
296 296 296 295 295 295 295 295 295 295 295 295 294 293 292 292 292 292 293 293 293 293 293 293 293 293 292 290 289 289 290 291 291 292 293 293 293 294 296 297 297 297 297 297 297 297 297 297 296 296 296 297 297 298 298 298 297 297 297 297 297 297 297 295 294 295 294 293 293 293 293 294 295 297 298 298 298 298 298 298 298 298 298 298 299 300 300
296 295 295 295 295 295 295 295 295 295 295 295 294 293 292 292 292 293 294 294 293 292 292 292 292 292 290 288 289 290 291 292 292 293 293 293 293 295 296 297 297 297 297 296 297 297 297 297 296 296 296 297 297 298 298 298 297 297 297 297 297 298 298 296 294 295 295 294 294 294 293 293 294 296 297 298 298 298 299 298 298 298 299 299 299 300 300
295 295 295 294 294 294 295 295 295 295 295 294 294 293 292 292 293 294 294 293 292 291 291 291 291 290 288 288 290 292 292 292 293 293 293 294 294 295 296 297 297 297 296 296 296 296 296 296 296 296 296 297 297 297 298 298 298 297 297 296 297 298 297 296 294 294 295 295 295 294 294 293 294 295 296 297 297 298 299 299 299 299 299 299 299 300 300
295 294 294 294 294 294 294 295 295 295 294 294 293 293 293 293 293 293 292 292 291 290 290 290 290 289 288 289 291 292 292 293 293 293 294 295 295 296 297 297 297 296 296 296 296 296 296 296 296 296 296 296 297 297 298 298 298 297 296 296 297 297 296 295 295 294 295 295 296 295 295 294 294 294 295 297 297 297 298 298 298 299 299 298 299 299 300
295 294 294 295 295 294 294 295 295 294 294 293 293 293 293 293 293 292 291 291 290 289 289 289 289 288 288 289 291 293 293 293 294 294 294 295 296 296 296 297 297 296 296 296 296 296 296 296 296 296 296 296 296 296 297 297 297 297 296 296 296 296 295 295 295 295 295 295 296 296 295 295 294 294 295 296 297 297 296 297 298 299 298 298 298 299 298
294 294 295 295 294 294 294 294 294 293 293 293 293 293 293 293 292 292 292 291 290 289 289 289 288 287 288 290 292 293 294 293 294 294 295 295 295 296 296 296 297 296 296 296 296 296 296 296 296 296 296 296 296 296 296 297 297 297 297 296 296 296 296 295 295 295 295 295 295 295 295 294 293 293 294 295 296 296 296 296 297 298 299 298 297 296 296
294 294 294 294 294 294 294 294 293 293 293 293 293 293 293 292 292 292 292 291 290 289 288 288 288 288 288 289 291 293 294 293 294 294 294 294 294 295 295 296 297 297 296 296 296 296 296 296 296 296 296 296 296 296 296 296 297 297 297 296 296 296 296 296 296 296 295 295 295 294 294 293 293 293 294 295 295 296 296 296 297 298 298 298 297 295 295
294 294 294 294 294 294 294 294 294 294 294 293 293 293 292 292 292 292 291 291 290 288 287 287 288 288 287 287 289 292 294 293 293 293 293 293 293 293 294 295 296 296 296 296 296 296 296 296 296 295 295 296 296 297 296 296 296 297 297 296 296 297 297 297 296 296 296 296 295 294 294 293 294 294 295 296 296 297 297 297 297 298 297 297 296 295 294
294 294 294 294 294 294 294 294 294 294 294 293 293 292 292 292 292 291 291 291 289 287 286 287 287 287 287 286 287 290 292 292 292 292 291 291 291 291 291 292 293 294 295 295 295 296 296 296 296 296 295 295 296 296 296 296 296 296 296 296 296 297 297 297 297 297 297 297 296 295 295 295 295 295 296 297 297 298 297 296 296 296 296 296 295 294 293
295 295 295 295 295 294 294 294 294 294 293 292 292 292 292 292 292 291 291 290 288 286 286 287 287 286 286 286 286 288 289 290 290 290 290 290 289 289 289 290 290 291 292 293 294 295 295 296 296 296 295 295 295 296 297 297 297 296 296 296 296 296 296 296 296 296 297 297 297 296 296 295 296 296 297 297 297 297 296 295 295 295 295 294 293 293 294
296 295 295 295 295 294 294 294 294 293 292 292 292 292 292 292 292 291 291 289 287 285 286 287 287 285 285 285 286 287 287 287 288 288 288 289 288 288 288 289 289 289 290 291 292 293 294 295 296 295 295 295 295 296 296 297 297 297 297 296 296 296 296 296 295 295 295 295 296 296 296 296 296 296 296 296 296 296 296 295 294 294 294 294 294 295 295
296 296 296 295 295 295 295 294 293 292 292 292 292 292 292 292 292 291 290 288 286 285 286 286 286 285 285 285 285 286 286 286 287 287 287 287 287 287 287 288 288 288 289 290 290 291 292 294 294 295 295 295 295 295 296 296 297 296 297 297 297 297 296 296 296 295 295 295 295 295 295 295 295 295 295 295 295 295 295 294 294 294 294 295 295 295 295
297 296 296 296 295 295 295 295 294 293 292 292 292 292 292 292 292 292 291 289 287 285 285 286 285 285 285 285 285 286 286 286 286 287 287 287 287 287 287 287 287 288 288 289 289 290 290 291 292 293 294 295 295 295 296 296 296 296 296 296 296 296 297 296 296 296 296 295 295 295 295 295 295 295 295 295 294 294 294 294 295 295 295 295 295 295 295
296 296 296 296 296 295 295 295 295 293 292 292 292 293 292 292 292 292 291 290 288 286 286 286 285 285 285 285 285 285 286 286 286 286 286 286 286 286 287 287 287 287 288 288 288 289 289 290 290 290 291 293 294 295 296 296 296 296 296 296 295 296 296 296 296 296 296 296 296 296 296 295 295 295 295 295 295 295 295 295 295 295 295 295 295 295 294
296 295 296 296 296 295 295 295 295 294 293 292 292 293 293 292 292 291 291 291 290 288 287 286 286 286 286 286 286 286 286 286 285 285 285 285 285 286 286 286 287 287 287 287 287 288 289 289 289 289 289 290 292 294 296 296 296 295 295 295 295 295 295 295 295 295 295 296 296 296 296 296 295 296 296 296 295 295 295 295 295 295 295 294 294 294 293
295 295 295 295 295 294 294 295 295 295 294 293 293 293 292 292 292 291 291 292 291 289 287 286 286 286 286 286 286 286 286 286 285 285 285 285 285 285 286 286 286 286 287 287 287 287 287 288 288 288 288 289 290 291 293 294 294 295 295 295 295 294 294 294 294 294 294 295 295 295 295 295 295 295 295 294 294 294 294 294 294 293 293 293 293 292 292
295 295 294 294 294 294 294 295 295 295 295 295 294 293 292 292 292 292 292 292 292 290 288 287 287 286 286 286 287 286 286 286 286 285 285 285 285 285 286 286 286 286 286 286 287 287 287 287 287 287 288 288 288 289 290 290 291 291 292 292 292 292 292 293 293 293 293 293 294 294 294 294 294 294 294 293 293 293 293 293 293 292 292 292 292 292 292
296 295 294 294 294 293 294 294 295 295 295 295 295 294 293 292 292 293 293 292 292 291 290 288 287 287 287 287 287 287 286 286 286 286 285 285 285 286 286 286 286 286 286 286 286 286 286 286 287 287 287 287 288 288 288 289 289 289 289 289 290 290 290 290 290 290 291 291 291 292 292 293 293 293 293 293 293 292 292 292 292 292 292 291 291 291 291
295 295 294 294 294 294 294 294 294 294 295 295 295 295 294 293 292 293 293 292 292 291 290 289 288 287 287 287 287 287 286 286 286 286 286 286 286 286 286 286 286 286 286 286 286 286 286 286 286 286 286 287 287 287 288 288 288 288 288 288 289 289 289 289 289 289 289 289 289 289 290 290 291 291 291 291 291 291 291 291 291 291 291 290 290 290 290
295 295 295 295 294 294 294 294 293 294 294 295 295 296 295 294 292 292 293 292 292 291 291 290 289 288 287 287 287 287 287 286 286 286 286 286 286 286 286 286 286 286 286 286 286 286 286 286 286 286 286 286 286 287 287 287 287 287 287 287 288 288 288 288 288 288 288 288 288 288 289 289 289 289 289 289 290 290 290 290 290 290 290 290 291 291 291
295 295 295 295 295 294 294 294 294 293 294 294 295 296 296 295 293 292 292 292 292 291 291 291 290 289 288 288 287 287 287 287 286 286 286 286 286 286 286 286 286 286 286 286 286 286 286 286 286 286 286 286 286 286 286 286 286 286 287 287 287 287 287 287 287 287 287 288 288 288 288 288 289 289 289 289 289 289 289 289 290 290 291 291 291 291 292
295 295 295 295 295 294 294 294 294 294 294 294 295 295 296 295 294 293 292 292 292 292 292 292 291 290 289 288 288 287 287 287 287 286 286 286 286 286 286 286 286 286 286 286 286 286 286 286 286 286 286 286 286 286 286 286 286 286 286 286 286 286 286 286 287 287 287 287 287 287 287 287 287 287 287 287 287 287 288 288 289 290 290 291 291 291 291
Wind_Speed
6 6 4 4 7 6 5 6 5 5 6 5 4 4 1 0 1 2 6 7 6 5 3 4 6 6 8 10 10 11 13 15 21 26 27 28 28 27 26 25 24 23 23 23 23 22 21 20 18 17 15 14 12 11 10 9 9 8 7 5 2 1 4 6 8 11 15 18 18 17 18 20 21 22 23 23 24 24 23 21 21 24 25 26 26 26 25
7 9 7 5 6 5 5 8 7 6 7 8 8 5 3 5 7 6 11 12 8 5 3 5 6 7 9 11 11 14 16 17 22 26 27 27 27 27 26 25 24 23 22 22 21 21 21 21 20 19 18 16 14 11 10 9 7 6 5 5 4 3 1 2 4 8 12 16 17 19 20 23 25 26 26 25 26 27 27 24 22 22 22 23 25 26 25
4 6 7 7 7 6 5 5 5 4 7 8 7 5 4 7 9 7 10 12 8 3 4 6 6 6 9 12 14 16 16 17 22 25 26 26 27 27 25 24 23 22 21 21 20 20 20 20 19 18 17 16 14 12 11 9 8 7 5 4 3 2 1 1 2 3 7 10 13 16 20 23 26 28 29 29 28 28 26 23 22 21 20 22 24 23 20
2 2 3 4 6 7 5 3 3 4 4 4 4 3 1 1 7 9 8 7 5 4 6 8 7 8 12 14 15 15 15 18 22 24 25 26 26 26 24 23 22 21 20 20 19 19 19 19 18 17 16 14 13 12 12 10 9 8 7 6 4 2 2 3 4 4 5 7 9 11 14 17 20 23 26 29 29 29 28 27 27 26 24 23 23 20 17
2 2 3 2 3 3 3 2 2 3 3 4 3 3 4 3 3 6 3 4 8 9 9 9 8 10 13 13 13 14 15 18 22 24 24 25 25 24 23 22 22 21 20 19 18 17 17 17 17 16 15 14 13 13 12 10 9 7 7 7 6 5 5 6 7 7 7 8 9 10 11 14 17 20 23 24 24 25 26 27 26 25 25 24 21 19 16
4 5 4 3 3 4 2 2 2 3 1 3 4 4 5 4 2 3 5 8 10 9 8 9 10 11 12 12 13 16 17 19 21 23 23 22 21 21 21 20 20 19 18 17 16 14 14 14 14 12 11 12 12 11 9 9 7 7 7 7 6 6 6 8 9 10 10 10 10 11 12 14 16 18 20 20 20 20 21 22 22 22 23 21 18 17 16
4 5 5 4 5 3 3 5 3 3 2 6 10 10 8 5 5 9 12 11 10 10 10 11 13 13 13 13 15 17 18 18 19 19 19 18 18 17 17 17 17 17 16 16 14 13 12 12 12 10 9 9 9 8 7 7 7 7 6 6 6 6 6 8 9 11 11 11 10 11 12 14 15 18 19 20 20 19 19 20 20 21 20 19 17 18 19
3 4 5 4 2 2 4 4 3 4 6 6 8 9 8 6 4 8 12 12 11 12 13 13 15 16 15 15 14 14 15 15 15 15 15 14 14 14 14 14 14 14 14 14 14 13 13 13 12 11 11 10 9 8 7 7 7 7 6 6 6 6 6 6 8 9 9 10 10 11 12 12 14 17 19 20 20 21 22 22 21 20 20 19 17 18 20
2 3 3 1 1 2 1 3 2 3 3 1 1 4 4 4 3 5 12 13 12 13 13 13 13 13 11 10 10 10 11 11 11 11 10 10 11 11 11 11 12 12 13 13 13 13 14 14 14 13 12 11 10 10 8 8 7 6 6 6 6 7 7 6 6 6 7 8 8 10 12 13 14 16 18 19 21 22 23 22 21 21 21 20 18 17 17
1 2 2 1 0 2 3 4 2 1 1 1 1 2 3 2 1 6 10 11 11 11 10 10 8 5 4 4 4 6 8 8 8 8 8 8 9 10 10 11 11 12 13 13 13 14 15 15 16 15 14 13 12 11 11 10 9 7 7 6 6 7 8 7 6 5 5 5 5 6 9 11 15 17 19 20 22 21 21 22 22 21 20 19 18 18 17
1 2 3 3 2 0 1 2 1 3 3 2 2 2 3 3 3 6 9 9 8 7 8 9 8 4 2 4 3 3 5 6 6 7 8 9 9 10 11 12 13 14 14 14 15 16 16 17 17 17 17 17 16 15 14 12 11 11 10 9 8 8 8 8 8 7 7 6 4 4 5 6 10 14 17 20 20 18 19 21 20 18 17 17 17 17 17
1 1 1 1 1 1 2 2 3 5 3 2 3 4 4 5 6 8 9 8 7 6 7 9 7 2 1 4 3 1 3 5 6 8 9 10 11 12 13 14 14 15 16 17 18 18 19 20 20 20 21 21 21 20 19 17 16 16 15 13 11 11 11 10 10 10 10 9 7 6 5 5 6 8 10 12 14 14 16 18 19 18 17 18 18 17 17
1 1 1 0 1 1 1 4 6 4 1 4 4 2 4 7 8 9 10 9 9 9 7 6 4 3 4 4 2 1 4 6 8 9 10 11 12 13 14 16 17 18 18 19 20 21 22 22 23 23 24 24 24 24 23 22 21 20 19 16 15 16 15 14 12 11 11 11 11 10 9 8 7 8 8 9 10 11 13 16 18 19 20 20 20 20 19
1 1 2 0 1 1 1 4 4 2 2 3 1 4 9 11 11 11 11 9 9 9 8 7 6 5 4 3 2 4 7 9 10 11 12 13 14 15 16 17 19 20 21 21 22 22 23 24 25 25 26 26 26 26 26 24 23 22 21 20 19 19 20 19 18 16 14 12 12 12 11 11 11 10 10 10 11 12 14 16 17 19 21 22 22 22 21
1 2 2 1 1 1 3 3 1 2 1 3 7 10 12 13 12 11 9 7 7 7 7 6 5 4 4 4 5 7 9 10 11 12 14 15 16 18 18 20 21 22 23 24 24 25 25 26 27 27 28 29 29 28 28 26 25 25 25 24 23 23 23 24 23 22 19 17 14 13 11 12 14 15 13 13 14 15 16 17 19 20 20 20 21 21 21
0 1 2 1 1 3 4 2 2 5 7 12 13 11 11 11 9 8 7 6 5 5 5 4 4 5 6 7 9 10 11 12 13 14 16 17 19 20 21 22 22 23 25 26 26 26 26 26 27 28 29 31 31 31 30 29 28 28 28 27 27 27 27 27 26 26 25 22 20 17 14 12 14 17 18 18 19 19 18 18 19 20 20 20 21 22 22
2 2 3 2 2 4 6 8 10 12 13 13 11 10 10 8 6 5 6 5 3 3 4 4 6 7 8 9 11 12 13 14 16 17 18 20 21 22 22 22 23 24 25 26 27 27 27 26 27 27 28 30 32 32 31 30 30 30 29 29 29 29 29 29 29 28 28 27 25 23 20 18 16 17 18 19 22 23 22 20 20 21 23 24 25 24 23
5 5 5 3 3 7 12 13 13 12 11 9 8 8 7 5 4 4 3 3 2 3 4 6 7 9 10 11 12 13 15 17 18 19 20 21 21 21 22 23 24 25 26 27 29 29 29 29 28 28 28 29 31 32 32 32 31 31 30 31 31 31 31 31 31 31 30 30 28 26 25 24 23 21 19 19 20 22 24 24 24 24 25 27 27 26 24
3 3 2 1 3 6 8 8 9 9 8 7 5 5 4 4 3 3 3 3 4 5 7 8 9 10 11 12 13 15 17 18 19 20 21 21 21 22 23 24 25 26 27 28 29 30 30 29 28 28 28 28 28 30 31 32 33 33 32 32 32 31 31 31 32 33 33 32 31 29 27 26 27 26 24 22 21 21 23 25 27 28 28 29 29 27 24
1 2 4 3 2 1 2 4 6 6 5 5 4 3 2 2 2 2 3 4 5 7 8 9 10 10 11 13 15 17 18 19 19 20 20 20 21 22 22 24 25 25 25 25 25 26 26 25 23 23 24 25 26 27 28 28 30 32 33 34 33 33 32 32 32 34 35 34 33 31 29 28 28 29 29 28 26 24 23 24 27 29 29 29 29 28 25
3 3 3 4 3 3 5 7 6 5 5 5 4 2 1 0 1 2 4 5 7 8 9 10 11 11 12 14 15 17 18 19 20 20 20 20 20 20 21 22 22 21 20 20 21 21 21 20 19 19 21 22 22 22 23 23 23 26 29 32 33 34 33 33 33 34 35 36 35 33 31 30 28 28 30 31 29 27 27 26 26 26 27 27 26 25 23
2 2 6 9 4 1 5 10 9 7 6 5 4 3 2 2 3 5 6 6 7 7 8 9 10 12 13 15 16 17 19 19 19 20 20 20 20 20 20 20 19 18 17 17 17 18 18 19 20 21 22 23 23 22 22 21 21 21 23 26 30 32 32 32 33 34 35 36 36 35 33 32 30 28 28 30 30 31 32 29 27 28 27 25 24 23 21
1 2 11 14 4 4 3 9 10 8 7 6 5 4 4 5 5 6 6 6 6 7 8 9 10 12 14 15 16 18 18 18 18 19 19 20 22 23 21 19 17 16 14 14 15 17 19 20 21 23 24 24 24 24 23 24 25 24 22 22 25 27 28 29 31 32 34 35 37 36 33 32 30 28 26 27 28 30 31 29 28 29 29 26 25 23 20
2 2 13 15 4 5 4 7 8 7 6 5 6 6 6 6 6 6 5 5 6 7 8 9 10 12 13 15 16 18 19 19 19 19 19 21 23 23 20 16 14 13 13 15 17 18 19 20 22 24 26 27 27 25 24 24 26 26 24 23 24 25 26 26 27 28 31 33 35 35 33 31 29 26 24 23 23 25 27 27 26 26 26 26 25 23 21
4 5 11 13 5 3 4 5 5 5 5 5 6 6 6 6 6 5 6 6 6 7 8 8 8 10 12 14 16 18 19 20 19 20 21 21 21 19 15 12 11 12 14 16 17 18 19 22 25 27 29 30 28 26 25 24 24 25 25 24 25 25 26 26 26 27 29 31 33 34 32 30 28 27 25 23 20 18 20 23 24 24 24 25 26 26 26
7 8 11 10 6 3 4 4 4 4 5 5 5 5 5 5 5 5 6 6 6 6 5 7 8 10 12 14 17 19 21 21 20 19 19 19 17 14 10 8 9 11 13 15 16 18 22 25 27 29 32 32 29 26 24 23 23 25 25 25 25 25 25 25 25 26 26 27 30 33 32 30 29 28 27 25 22 17 14 14 18 23 26 27 27 27 25
6 7 8 7 5 4 4 3 3 3 3 4 4 3 3 4 4 5 5 5 5 4 5 7 9 11 13 15 17 20 22 20 19 18 16 14 12 9 8 7 9 10 11 14 17 20 25 27 28 31 34 32 27 24 23 22 22 24 25 25 26 26 25 24 23 24 25 26 29 32 32 30 29 28 28 26 25 22 17 12 13 18 23 27 28 27 25
5 4 4 3 3 3 3 3 3 3 3 3 3 3 3 3 4 4 4 4 5 6 6 8 10 13 15 16 18 20 21 19 17 17 14 10 8 8 7 7 8 10 12 16 19 23 26 27 28 32 34 30 25 23 22 22 22 22 23 24 25 25 25 24 23 23 23 24 27 31 33 32 29 28 27 26 25 25 23 19 15 16 17 20 25 28 27
4 4 4 2 1 1 2 3 4 3 3 3 3 3 3 3 3 4 5 5 6 7 8 9 10 12 15 17 18 20 20 19 18 15 11 8 8 8 7 6 8 11 14 17 20 23 25 26 28 32 33 29 24 22 21 19 19 20 20 21 23 24 25 24 23 22 20 20 23 27 32 33 30 27 26 26 25 25 24 23 22 20 14 12 20 29 31
6 5 5 3 2 2 3 3 4 4 4 4 4 3 3 4 4 4 4 5 6 8 9 10 11 13 15 16 18 19 19 18 16 13 9 8 8 7 6 7 10 12 14 17 19 22 24 26 29 33 33 28 22 20 19 18 19 19 19 19 20 20 22 22 22 21 19 18 18 22 28 33 32 29 26 25 24 24 24 23 24 25 18 13 19 27 30
6 6 6 5 4 4 4 4 5 6 5 6 5 4 4 5 4 4 5 6 8 9 11 11 12 13 14 16 18 18 16 14 12 10 8 8 7 6 6 8 11 13 14 17 19 21 24 27 29 32 33 29 22 18 18 19 20 21 20 19 19 18 17 18 19 19 18 16 15 17 23 29 31 29 28 26 23 23 24 24 23 23 21 18 19 22 22
5 5 5 6 5 6 6 6 7 7 7 7 6 5 5 5 4 5 7 9 10 10 11 12 12 12 13 15 17 15 11 9 8 7 6 6 6 6 7 9 11 11 13 15 18 21 25 28 29 31 33 31 24 19 18 19 20 22 21 18 17 16 14 13 14 16 15 13 12 12 17 23 27 28 28 27 24 22 23 23 23 23 23 22 23 24 22
4 4 5 6 6 7 8 8 8 8 8 7 6 5 5 4 5 7 9 10 10 10 11 11 10 10 13 15 14 11 7 6 6 5 4 5 6 6 7 9 9 9 11 13 16 19 23 26 28 30 32 33 29 23 19 18 21 22 21 16 13 12 9 6 9 12 13 13 13 11 11 16 22 26 27 27 26 23 21 21 21 22 23 23 24 25 24
3 3 3 4 5 6 7 7 8 8 8 7 6 5 3 4 6 7 8 9 10 10 10 9 9 11 13 13 11 8 6 5 4 2 3 4 5 6 7 7 7 7 9 11 14 16 19 23 27 29 31 33 33 28 22 19 20 23 21 15 10 7 3 2 5 7 9 11 13 12 10 10 16 22 25 27 27 25 22 20 18 18 19 21 23 25 24
4 3 3 3 4 4 4 6 8 8 8 7 6 4 3 4 5 6 8 9 10 10 9 7 8 11 12 12 9 7 6 5 4 3 4 6 6 6 7 6 4 4 6 9 11 15 17 21 25 28 30 32 34 33 28 21 19 21 21 17 13 10 9 8 7 6 6 7 9 11 11 10 13 19 25 27 27 24 21 19 17 15 17 22 26 28 27
2 1 3 4 4 3 4 7 8 8 7 6 5 4 4 4 4 6 8 9 10 10 8 6 7 10 11 10 8 5 4 4 3 4 5 6 7 7 7 6 4 4 5 8 11 13 16 19 22 25 28 30 31 33 32 26 20 18 19 19 18 16 15 14 12 9 6 4 4 7 9 9 10 16 22 25 24 22 19 17 15 14 15 19 25 28 28
1 1 3 4 3 3 5 7 8 7 5 5 5 4 5 5 6 7 9 9 10 10 7 6 6 9 10 10 7 5 4 4 4 5 7 8 8 8 8 6 5 5 6 9 12 13 16 18 20 23 26 27 28 30 32 30 24 18 16 17 20 20 19 17 15 12 10 8 6 6 7 8 10 14 18 19 18 17 16 14 14 15 15 17 21 26 28
2 1 3 4 3 4 6 7 7 6 5 5 5 5 6 7 8 8 8 9 10 9 7 5 5 7 9 9 7 5 5 5 6 7 8 8 9 9 8 8 8 8 9 12 13 14 15 17 18 21 23 25 25 26 28 31 30 26 20 16 16 16 16 15 14 13 11 11 11 10 9 11 13 15 15 15 13 12 12 12 14 15 15 17 22 26 27
3 1 2 3 3 4 6 8 8 7 6 6 6 6 6 8 8 7 7 8 9 9 6 4 4 5 7 7 6 5 5 5 5 6 7 8 8 9 9 9 10 10 11 12 13 13 14 15 16 18 21 23 23 23 24 26 30 31 29 24 19 16 14 14 13 13 12 12 13 14 13 14 15 15 14 13 12 10 9 9 12 14 16 21 26 27 26
5 4 2 3 3 4 6 8 9 8 7 7 6 5 6 7 7 7 7 8 8 8 5 3 3 4 5 5 5 5 4 4 5 6 6 6 7 7 7 6 7 8 10 11 12 12 13 13 14 16 19 20 21 21 21 22 25 28 31 31 29 25 22 19 16 15 14 14 15 15 15 15 15 14 13 12 11 11 11 12 14 18 22 26 27 26 24
9 8 6 5 4 4 5 7 8 9 9 8 7 6 6 7 7 7 7 8 8 7 4 2 2 3 4 4 3 4 3 4 5 5 5 5 5 5 4 5 6 8 9 11 12 12 12 12 13 15 17 18 18 18 19 20 22 24 26 28 29 29 29 27 25 22 20 19 18 17 16 16 16 16 16 16 16 17 18 20 22 25 26 26 25 22 21
12 11 11 9 7 6 6 7 9 11 12 10 8 7 7 7 7 7 7 8 7 6 4 2 2 3 3 3 2 2 3 4 5 4 4 4 4 4 4 5 6 7 9 10 11 10 11 12 13 15 17 17 17 16 16 17 19 21 22 23 25 26 27 27 27 26 25 24 23 22 20 20 20 20 20 21 21 21 22 23 24 24 24 22 20 19 18
13 12 11 11 10 8 7 7 8 11 13 12 10 8 7 7 7 7 7 8 8 6 5 3 2 3 4 4 4 4 4 4 3 3 3 3 3 4 5 5 5 6 8 9 10 10 10 11 13 15 16 16 15 14 13 14 16 18 19 20 21 23 24 24 24 23 23 23 23 23 22 22 22 21 21 21 21 21 21 21 21 21 20 19 17 15 14
13 12 10 10 9 9 8 8 8 10 12 12 11 8 7 7 6 7 7 7 8 7 5 4 3 4 4 5 5 5 4 3 3 3 4 4 4 5 5 5 5 6 7 8 9 9 10 11 13 14 15 14 14 13 13 13 14 15 17 18 18 19 20 21 21 21 21 21 20 20 20 20 20 19 19 19 19 18 18 18 17 17 16 15 13 12 12
13 11 9 8 9 9 10 9 9 10 10 11 11 10 8 7 7 6 6 7 7 7 6 5 4 4 4 5 5 4 4 3 3 4 4 5 4 4 4 5 5 6 7 8 8 8 9 11 13 13 13 13 12 12 12 13 13 14 15 16 16 17 17 18 19 19 20 20 19 19 18 18 18 18 18 17 17 16 16 16 16 15 14 14 13 12 12
13 11 8 8 9 9 9 9 8 9 10 11 13 12 10 8 7 6 6 6 7 7 6 4 4 4 4 4 4 4 3 3 3 4 4 4 4 4 5 6 7 8 8 8 8 8 9 11 11 12 12 12 11 11 11 12 12 13 13 14 14 14 15 15 15 15 16 16 17 17 17 17 17 17 16 16 15 15 15 14 14 14 13 13 12 11 10
14 13 11 9 8 7 8 9 9 10 12 13 14 14 13 11 9 7 6 6 7 7 5 4 3 3 3 4 3 3 2 2 3 3 4 4 4 5 6 8 9 9 9 9 8 8 9 10 10 11 11 11 11 11 11 11 11 11 11 12 12 12 13 13 12 12 12 12 12 13 13 13 14 14 13 13 13 12 12 11 11 11 10 9 9 8 7
14 14 13 10 8 7 8 9 11 13 14 15 16 15 14 13 11 9 8 7 7 7 6 5 3 2 2 2 3 2 1 1 2 3 3 4 5 6 7 8 9 9 10 10 10 9 10 10 10 11 10 10 10 11 11 11 11 11 11 11 11 11 11 12 12 11 11 10 10 9 9 9 10 10 10 9 9 9 8 8 7 7 7 6 5 5 4
13 14 13 12 10 9 10 11 13 14 15 16 16 15 15 15 14 12 10 8 7 6 6 6 4 2 1 1 1 1 0 1 1 2 3 4 5 5 6 7 8 9 10 11 11 11 11 11 11 11 10 10 10 10 11 11 11 11 11 12 12 12 12 12 12 11 10 10 9 9 8 8 8 7 7 6 6 6 6 6 5 5 5 4 4 4 3
10 12 14 14 14 14 13 13 13 14 15 16 16 16 15 16 16 15 12 10 9 8 7 7 6 4 2 2 1 1 1 1 1 2 2 3 4 4 5 6 7 8 9 10 11 11 11 12 12 11 11 11 11 11 11 11 11 11 11 11 12 12 12 12 12 11 11 10 10 10 10 10 10 10 9 9 9 9 8 8 7 7 7 7 7 7 6
11 12 13 13 15 17 17 15 13 12 13 14 15 16 16 17 17 16 14 12 11 9 8 8 7 6 4 3 3 2 2 2 2 2 2 3 3 3 4 5 6 7 8 9 10 11 11 11 11 11 11 11 12 12 12 11 11 11 11 11 11 11 11 11 11 12 12 12 12 12 13 13 13 13 13 12 12 12 11 11 10 10 10 10 10 10 9
12 13 13 13 14 16 17 16 14 13 12 13 14 15 16 17 17 17 16 15 13 12 10 9 8 7 6 5 4 4 3 3 3 3 3 3 3 3 3 3 4 5 7 7 8 9 10 10 11 11 11 11 11 11 11 11 11 11 11 11 11 11 10 10 11 11 12 12 13 13 14 15 15 15 14 14 14 14 14 14 14 14 13 13 12 12 11
Wind_Direction
30 14 18 75 81 78 55 34 17 6 3 9 68 83 29 242 174 149 126 112 99 89 62 52 60 63 77 80 72 73 74 75 80 81 78 77 75 76 76 75 76 76 75 74 74 75 76 76 76 75 72 70 67 68 71 73 77 80 81 85 89 245 244 243 238 234 238 242 245 245 244 242 238 236 241 246 249 255 258 252 245 243 240 239 239 234 226
25 14 8 42 80 87 59 40 25 25 42 49 64 71 54 73 76 88 111 106 88 81 79 62 72 84 88 85 77 73 72 72 77 78 75 73 72 73 73 72 73 72 72 71 71 71 71 72 74 76 76 75 70 65 60 58 60 60 63 75 75 64 36 280 253 239 241 244 244 244 244 246 246 244 245 246 250 258 261 252 242 242 244 246 246 240 232
0 356 5 19 50 70 59 41 26 45 65 59 61 76 76 79 83 88 101 100 91 83 87 85 89 89 85 80 72 69 67 69 74 75 72 71 70 69 69 68 68 68 67 66 65 64 62 61 64 67 69 73 74 72 66 56 47 40 35 46 68 86 99 265 255 247 245 244 246 248 248 251 251 249 247 243 244 251 253 243 238 243 249 258 264 261 253
274 307 21 30 47 51 28 356 348 12 54 72 70 76 40 86 125 125 114 107 116 127 113 102 95 87 82 76 70 68 65 66 71 72 70 69 68 67 65 63 62 61 59 59 57 56 54 53 53 54 55 59 63 65 62 55 44 33 20 13 9 339 288 266 253 247 242 240 244 246 248 252 254 253 250 244 239 241 243 240 241 244 247 254 261 263 262
196 152 123 89 68 45 321 293 328 3 44 91 91 63 17 0 133 138 126 121 130 135 131 116 99 87 81 74 69 71 69 68 71 71 70 69 67 64 62 58 56 54 52 51 49 47 47 44 42 42 43 45 48 47 46 45 39 30 21 13 358 333 309 289 273 259 248 245 244 243 244 250 253 253 249 241 235 238 241 237 233 235 241 246 249 252 254
153 136 123 123 165 190 255 327 291 276 342 81 94 75 27 9 62 96 87 108 125 134 132 119 106 95 87 82 78 77 75 73 71 69 68 66 63 60 57 52 50 48 46 45 43 42 42 38 34 32 32 36 39 36 32 27 18 14 17 14 0 340 317 297 284 272 261 254 249 248 247 247 250 249 243 237 237 236 233 229 227 233 239 239 241 242 231
127 129 128 152 188 213 340 348 301 229 156 113 101 82 52 45 98 112 111 117 128 129 120 114 110 105 98 91 83 78 75 71 68 65 61 57 54 50 47 42 39 37 35 34 32 31 30 27 24 19 15 18 22 22 20 13 1 354 354 355 351 343 327 309 298 289 279 270 261 256 251 246 244 240 235 236 239 235 228 229 235 239 237 233 234 230 211
126 150 166 176 201 322 0 26 71 122 138 136 108 80 56 42 74 116 121 123 129 128 124 120 116 110 101 90 78 73 72 67 63 60 55 49 45 39 33 27 22 19 17 15 15 12 9 9 9 6 2 2 1 1 2 1 355 346 334 326 319 315 314 316 314 310 301 290 279 267 258 247 236 231 233 239 242 238 235 238 238 236 234 230 225 213 202
139 150 163 146 350 299 149 101 109 133 141 182 119 88 75 35 23 116 124 127 134 134 134 135 126 113 104 91 73 64 64 60 57 55 49 42 36 29 21 13 6 1 358 356 353 351 349 348 347 347 346 347 347 344 341 340 341 339 330 315 300 291 290 296 306 315 313 305 292 277 265 250 236 232 237 244 247 244 242 244 241 232 225 217 209 204 202
114 132 141 131 218 230 173 132 122 1 355 277 249 113 107 73 74 133 130 134 144 148 156 164 155 133 121 113 84 57 53 50 47 45 38 29 22 14 5 358 352 346 343 341 337 334 333 330 329 328 328 329 329 327 325 324 322 320 315 306 290 277 274 274 277 281 287 295 299 288 272 255 243 239 239 243 248 246 243 246 244 233 219 207 203 205 205
135 155 167 178 184 208 59 96 70 340 318 243 216 167 148 140 155 156 143 138 147 159 173 175 173 189 185 137 108 59 38 33 26 22 18 9 2 355 348 342 337 333 330 327 324 321 319 317 317 316 314 313 313 312 310 308 308 303 295 288 278 266 260 256 254 255 256 261 272 278 275 261 246 239 236 236 239 236 232 231 228 220 215 211 208 207 203
109 121 141 217 205 31 8 346 325 318 303 187 187 202 169 150 165 165 146 131 129 131 147 159 167 201 160 114 108 53 14 9 1 360 359 354 346 340 334 328 324 321 318 315 313 311 310 310 310 309 306 304 304 304 300 296 296 293 287 282 271 259 253 247 245 248 249 249 250 249 247 251 243 229 220 221 221 216 212 211 207 206 212 212 206 202 195
93 105 123 259 282 166 281 312 325 326 223 185 210 217 133 134 153 147 127 116 112 104 107 126 124 80 76 93 98 355 345 349 349 348 345 341 336 331 326 322 318 315 312 309 307 305 303 302 301 301 300 298 298 297 294 292 291 286 281 276 264 253 248 245 243 242 241 242 245 241 233 237 243 232 216 214 215 207 201 201 202 203 204 201 197 193 188
88 104 111 6 275 144 322 319 332 352 194 195 172 112 121 131 139 133 120 113 107 97 90 93 95 88 76 62 9 342 342 343 343 339 334 331 328 324 320 319 317 313 310 308 305 303 301 299 298 298 296 295 294 292 290 290 288 283 279 272 263 255 251 250 249 246 240 238 237 234 231 234 239 236 225 223 222 215 207 201 197 196 193 190 190 190 189
108 111 103 183 195 56 356 323 319 3 343 137 121 119 126 129 129 127 121 111 102 96 89 86 80 59 24 359 347 342 339 338 335 332 330 327 324 321 319 317 315 312 309 307 305 304 303 301 300 298 296 294 293 290 289 289 286 283 280 274 266 260 254 252 252 250 247 244 238 233 232 231 229 227 227 228 224 218 216 212 207 205 201 194 191 191 190
287 134 112 126 320 347 342 320 109 90 106 122 122 121 126 129 128 125 116 106 95 79 67 55 32 12 357 346 341 337 334 331 329 327 326 324 322 321 319 318 315 313 310 308 306 305 303 301 298 296 295 293 291 289 288 287 284 281 279 276 271 265 259 255 252 250 250 249 245 240 234 226 222 222 223 226 223 219 218 217 213 209 205 201 198 194 189
44 58 80 80 5 25 66 94 104 106 112 116 112 109 113 116 114 108 104 101 83 44 25 11 1 354 347 342 338 334 330 328 326 324 322 322 321 320 320 319 316 313 310 308 306 304 303 302 299 296 294 292 290 289 287 285 282 278 276 273 270 267 263 259 255 252 251 250 248 244 237 231 228 225 222 222 220 217 215 214 209 204 201 199 197 194 192
86 64 59 49 49 74 88 98 107 110 109 105 97 95 93 84 73 74 76 67 42 6 355 353 350 343 338 335 331 327 324 323 322 320 320 320 320 321 321 319 316 313 310 309 308 307 306 305 302 300 297 293 290 289 286 283 281 278 275 272 270 267 265 261 258 256 254 251 250 248 242 236 233 231 231 228 222 217 214 213 209 205 202 200 198 198 199
118 103 120 134 98 93 97 107 116 116 114 111 100 81 68 57 45 27 13 7 355 340 337 337 336 333 330 327 323 321 319 318 318 318 319 320 322 321 320 318 317 316 314 313 311 310 310 310 309 306 303 300 295 292 289 285 282 278 275 272 270 269 267 264 260 257 255 253 252 251 249 244 238 234 233 233 231 225 217 213 211 208 206 206 205 204 203
56 111 142 157 156 164 173 152 143 142 141 135 121 99 85 65 23 353 341 332 323 322 323 323 323 323 321 319 319 317 316 316 317 318 320 321 321 320 320 320 320 319 317 316 315 315 316 317 315 312 309 306 302 297 293 289 286 282 278 274 270 267 265 263 261 257 255 254 252 251 251 249 244 238 233 232 233 231 224 220 216 211 208 207 206 204 203
84 92 141 167 188 223 216 199 186 178 171 164 159 155 150 19 317 303 301 302 303 307 311 312 313 314 313 314 315 313 313 315 316 317 320 320 320 321 322 322 321 319 317 318 320 323 326 327 325 324 322 321 317 309 300 293 287 282 280 277 273 268 264 260 257 256 254 252 251 250 249 248 248 245 240 238 237 235 233 230 222 214 212 212 211 211 212
132 159 175 173 165 205 203 199 193 186 185 190 195 198 212 242 267 274 280 286 291 296 301 305 307 309 310 311 312 312 314 316 316 317 318 319 320 323 323 321 320 321 321 322 327 334 339 339 336 334 332 332 331 326 317 307 296 286 280 277 274 271 266 261 256 253 251 250 249 249 246 245 246 246 245 245 243 241 240 238 232 228 228 230 234 236 231
139 189 180 175 148 39 166 189 192 193 198 202 205 213 230 246 260 268 271 279 289 297 302 304 306 310 313 315 318 318 317 317 316 316 317 319 322 323 322 321 324 327 330 337 342 345 345 342 335 330 327 324 323 320 315 310 304 297 288 280 275 272 267 262 257 251 248 246 246 247 245 244 244 244 246 248 247 244 244 243 238 236 239 243 248 245 230
76 156 179 180 155 54 124 171 184 193 204 213 223 238 252 256 261 264 265 275 287 293 297 302 310 317 321 323 324 322 320 319 319 318 319 322 322 321 322 324 327 333 346 355 353 347 342 335 329 325 323 322 319 313 306 301 299 296 290 284 281 278 272 265 258 251 246 243 242 243 243 242 241 240 241 244 246 247 246 243 238 235 235 234 232 225 215
106 129 168 180 175 103 141 166 185 207 222 233 241 253 260 257 255 256 263 277 286 286 292 308 324 329 328 330 332 330 328 325 322 321 322 322 321 322 326 327 331 345 359 358 349 339 332 328 326 325 325 325 322 314 304 297 291 289 286 281 280 282 279 273 265 255 247 242 239 239 239 239 237 235 235 237 241 245 244 240 234 230 225 222 219 217 217
114 130 155 172 179 171 172 182 204 219 224 234 247 253 250 248 254 261 269 278 279 278 298 326 336 333 331 332 335 336 334 330 327 325 322 320 321 327 328 329 343 360 2 351 340 334 329 326 326 328 329 328 324 314 305 298 290 285 282 278 275 275 277 276 272 263 252 242 236 233 234 234 233 232 233 235 237 238 239 234 226 223 223 222 217 212 211
124 136 146 154 169 193 203 210 221 224 227 239 247 243 233 249 269 272 269 269 267 276 307 327 329 330 330 329 330 333 334 332 330 326 322 320 324 326 320 330 353 3 354 341 337 335 332 330 330 332 334 332 327 319 311 304 295 287 282 278 274 271 270 270 270 267 259 248 237 230 228 228 228 229 230 232 232 232 232 227 217 217 220 219 212 206 205
146 159 161 156 171 196 218 233 233 235 240 235 229 227 240 262 272 265 262 269 275 286 303 312 316 322 324 324 325 327 329 330 328 324 322 322 321 314 314 338 1 357 344 341 341 338 335 334 335 338 339 338 335 329 321 312 303 296 289 282 276 271 267 264 264 264 262 253 242 232 226 223 222 223 225 227 228 229 230 229 226 222 218 216 216 214 207
192 197 205 218 222 217 247 245 232 232 238 226 218 234 248 253 262 268 276 283 283 290 302 308 308 310 313 317 320 323 326 328 325 322 321 321 316 314 324 351 1 352 345 346 346 342 340 342 344 346 347 346 342 337 331 325 319 314 305 294 283 274 267 261 258 258 259 255 245 235 228 223 219 217 218 221 224 226 228 229 229 228 223 219 219 211 195
220 220 225 240 263 273 270 246 224 226 230 218 216 234 240 244 263 278 287 294 294 298 308 311 305 301 305 312 318 322 324 324 322 323 325 322 316 324 348 2 359 356 356 355 352 349 350 353 353 353 354 354 350 347 345 341 335 328 320 311 299 285 273 263 255 251 251 250 244 235 228 224 219 215 214 216 219 222 224 224 225 228 233 236 223 206 186
215 226 233 239 257 275 271 237 216 220 221 213 215 231 234 236 259 284 301 312 310 307 309 308 301 299 306 314 319 322 324 323 324 329 329 318 317 338 4 1 354 356 359 359 357 358 0 1 358 358 360 0 359 357 355 349 340 333 325 316 307 298 283 266 252 244 242 242 240 233 227 222 218 214 212 211 212 217 220 218 218 221 224 228 227 216 196
194 212 230 242 259 270 261 232 215 216 216 213 217 228 229 231 266 302 313 318 316 311 310 307 302 305 313 320 323 326 327 328 333 337 331 325 336 360 4 351 347 351 356 357 358 2 5 3 360 1 4 6 5 3 359 353 347 342 335 322 308 299 288 267 247 237 232 227 225 226 225 221 216 212 210 209 208 212 215 213 212 212 210 211 215 211 199
190 200 225 244 264 271 259 236 220 215 213 214 218 223 226 247 292 311 316 318 317 314 314 312 310 314 321 324 328 332 331 332 340 345 344 349 2 4 352 343 344 351 355 355 358 5 7 4 1 4 8 10 10 8 3 358 357 356 350 338 321 305 293 261 231 227 224 216 212 213 219 220 216 212 209 207 205 208 211 211 212 213 211 212 216 208 193
228 232 244 261 278 276 257 233 218 211 208 207 209 214 234 282 304 312 319 322 321 320 320 319 319 325 328 331 335 332 326 333 353 15 18 13 9 358 347 344 349 356 356 356 2 10 10 6 4 7 10 12 14 13 9 5 8 10 7 1 355 352 7 121 168 200 208 206 206 205 204 211 213 210 208 205 203 206 211 213 214 215 212 210 212 208 194
246 265 294 304 300 285 247 213 199 196 195 195 196 211 263 294 304 317 328 329 328 329 331 331 330 332 334 338 338 330 324 340 3 20 21 17 12 2 355 351 354 4 4 6 12 16 14 9 7 9 12 14 17 17 15 13 16 20 21 25 34 46 69 97 118 146 170 186 199 199 197 203 209 207 204 202 201 205 212 215 215 217 213 206 201 196 187
234 304 323 312 297 263 214 192 183 182 187 194 204 235 278 293 305 321 329 332 334 336 338 338 335 336 342 349 350 340 343 4 24 33 33 29 24 17 8 358 352 356 4 15 21 20 15 11 10 11 14 17 19 20 20 22 25 29 33 42 52 62 73 84 90 97 111 132 169 185 190 202 208 201 196 196 198 204 212 217 215 214 214 209 200 188 178
152 10 336 319 292 228 200 193 192 197 204 213 229 256 279 292 306 318 325 332 337 338 341 345 338 336 347 360 3 358 6 24 38 45 40 32 26 22 14 8 7 4 4 13 19 17 13 12 13 15 18 20 21 23 25 28 33 38 44 53 61 67 71 76 80 85 92 98 110 138 164 174 175 176 179 185 191 198 206 213 216 215 214 211 200 185 172
146 53 347 331 296 225 204 202 210 224 234 240 249 263 277 294 308 316 322 329 335 337 340 344 337 335 346 357 1 4 14 24 34 38 34 27 22 18 13 13 20 21 18 17 15 12 11 13 16 20 23 23 23 25 28 32 38 44 49 57 68 72 71 70 74 82 93 102 109 115 128 140 146 149 154 161 172 185 196 203 208 209 206 199 189 178 166
187 179 323 326 304 242 217 213 221 236 247 248 248 257 277 297 311 319 321 327 336 340 338 334 336 339 344 347 353 3 13 18 23 25 24 21 16 9 5 10 17 20 22 20 16 14 16 17 19 24 28 27 26 26 29 33 41 47 50 54 61 69 73 74 76 77 83 96 107 111 114 123 132 136 139 146 158 169 177 183 187 186 179 173 169 165 159
226 219 247 296 300 265 235 227 229 236 238 235 236 253 282 299 312 322 326 329 337 341 336 325 335 344 343 343 349 357 4 12 15 14 17 19 12 359 355 9 23 27 29 28 23 20 21 23 25 30 33 31 29 30 30 33 40 47 51 54 57 61 67 74 80 82 84 91 101 108 110 116 122 126 127 131 138 140 138 145 156 160 158 156 157 157 157
248 241 240 256 277 275 256 241 233 227 224 226 235 256 281 298 309 320 330 337 343 347 344 332 341 355 356 349 338 334 343 2 11 11 9 6 357 344 348 12 28 36 39 35 29 25 27 29 32 35 37 36 34 33 34 35 40 46 51 55 56 58 61 65 71 76 81 86 93 100 107 114 119 121 122 123 124 124 125 131 140 147 149 151 153 154 153
262 254 247 248 259 273 268 251 235 225 221 225 235 253 273 291 304 318 334 345 352 356 353 344 3 22 19 9 354 350 354 359 359 356 347 337 335 343 0 14 25 37 43 41 35 31 33 36 38 39 40 40 39 38 39 40 43 47 52 56 59 61 62 63 65 69 75 81 86 90 97 104 109 113 116 119 120 121 126 132 139 144 147 147 145 143 143
277 274 263 253 252 261 266 259 245 233 225 222 229 247 266 282 296 311 329 345 356 3 0 354 13 33 33 29 29 28 20 7 357 352 345 342 353 13 21 22 28 40 47 46 41 37 37 41 43 44 43 43 43 43 45 46 49 53 56 58 62 66 68 68 69 69 72 77 83 87 92 98 103 109 115 118 121 126 131 136 140 143 144 141 138 137 141
277 285 280 262 250 253 258 256 250 241 230 221 223 238 256 272 288 301 315 334 350 359 360 358 11 30 37 40 40 38 34 29 22 18 18 20 22 25 28 32 42 53 56 53 47 44 44 47 48 46 45 45 47 50 52 53 54 56 58 60 63 67 71 75 77 78 79 81 84 88 93 99 104 110 115 119 123 127 131 131 132 135 137 139 140 142 145
263 276 282 265 248 247 251 252 252 250 238 225 222 230 244 261 278 291 303 320 335 346 352 359 7 18 29 34 34 33 34 38 39 39 39 36 31 34 45 54 61 66 65 59 53 51 53 53 51 48 45 45 48 53 58 59 59 60 61 63 65 67 69 73 77 81 84 87 88 89 92 96 100 104 108 111 116 120 122 125 128 132 137 142 145 147 149
248 255 260 256 249 249 249 248 250 250 243 233 229 231 237 248 263 276 289 306 319 329 339 349 359 7 12 14 14 15 23 37 44 45 43 40 41 56 68 69 69 71 70 65 60 58 58 57 55 51 47 46 48 52 57 61 62 63 64 65 66 68 70 72 73 76 81 86 90 93 95 96 98 100 103 106 110 114 118 123 128 132 137 141 144 146 150
243 243 245 247 252 254 249 243 242 242 241 239 237 235 235 239 249 261 275 289 301 309 317 327 343 356 359 3 8 11 19 40 48 48 48 49 53 60 65 67 68 70 71 69 67 64 63 62 60 56 53 50 51 53 57 60 62 64 65 65 66 68 70 72 74 75 78 81 86 92 98 101 103 105 106 108 111 114 117 121 125 129 134 139 143 149 157
242 238 237 238 240 243 245 245 244 243 243 244 244 241 237 235 238 248 260 271 280 288 294 300 314 336 349 354 6 15 30 64 71 70 68 66 62 60 62 65 67 69 70 68 64 62 63 63 63 62 60 56 55 57 59 60 61 63 65 68 70 71 71 73 74 76 79 81 84 87 92 99 104 108 110 113 116 118 121 125 130 135 141 149 158 170 185
245 236 233 235 235 238 244 248 250 249 248 247 247 246 241 235 234 239 249 257 262 268 275 279 283 293 307 310 325 2 70 113 105 97 89 79 71 66 66 68 70 72 73 71 66 62 60 59 59 61 63 63 63 63 63 63 63 64 65 68 72 75 76 76 76 77 80 85 89 92 95 98 101 104 107 113 117 121 127 133 139 142 147 155 162 167 174
252 238 236 240 243 245 248 253 258 260 258 253 249 247 243 237 233 234 240 246 249 253 261 266 265 259 250 249 243 218 195 193 182 155 123 102 90 81 76 76 76 76 77 77 75 71 66 62 59 58 59 61 64 67 69 69 69 68 68 69 72 74 75 76 78 80 83 87 92 97 100 102 103 103 104 105 106 108 112 115 118 121 125 127 129 129 128
263 253 249 251 253 252 252 255 262 267 264 258 253 249 245 240 236 234 235 240 244 245 248 253 253 247 239 233 230 223 215 210 202 190 166 139 123 110 95 88 85 82 80 79 78 76 74 71 68 65 61 59 61 65 68 70 71 72 74 75 74 74 75 78 80 83 86 90 94 98 100 102 104 105 105 105 106 108 109 110 111 112 113 115 116 116 115
270 264 258 257 257 255 252 251 254 258 259 255 250 247 245 243 239 236 233 235 238 240 243 246 247 245 240 233 224 219 223 228 225 216 201 180 158 141 126 113 102 95 90 87 83 80 79 77 74 71 69 65 63 63 66 67 68 70 73 76 77 78 81 84 85 86 88 91 96 101 104 107 107 107 107 106 107 107 107 107 107 106 107 108 110 112 112